Location: Unspecified
(0.0000°N, 0.0000°E)
Time: 20:24:04
(UTC+00:00)

Explorer 7 - Visible Passes

Search period start: 22 April 2018 00:00
Search period end: 02 May 2018 00:00
Orbit: 485 x 682 km, 50.3° (Epoch: 21 April)

Date Brightness Start Highest point End Pass type
(mag) Time Alt. Az. Time Alt. Az. Time Alt. Az.
29 Apr 9.1 20:01:41 10° SW 20:03:25 22° SW 20:03:25 22° SW visible
30 Apr 8.8 18:28:19 10° SSE 18:31:27 17° SE 18:34:34 10° E visible
30 Apr 8.6 20:07:23 10° WSW 20:11:07 36° W 20:11:07 36° W visible
01 May 8.0 18:32:28 10° S 18:36:52 32° SE 18:41:13 10° ENE visible
01 May 9.6 20:13:43 10° W 20:17:21 21° NW 20:19:33 15° NNW visible
